Location: Unspecified
(0.0000°N, 0.0000°E)
Time: 00:54:27
(UTC+02:00)

ASC 2 Rocket - Visible Passes

Search period start: 30 July 2014 00:00
Search period end: 09 August 2014 00:00
Orbit: 556 x 2349 km, 24.0° (Epoch: 29 July)

Date Brightness Start Highest point End Pass type
(mag) Time Alt. Az. Time Alt. Az. Time Alt. Az.
30 Jul 7.2 00:56:56 10° NW 00:59:38 16° NNW 00:59:38 16° NNW visible
30 Jul 7.0 03:16:37 28° NE 03:16:37 28° NE 03:24:36 10° ENE visible
30 Jul 6.1 05:11:35 30° NW 05:19:33 57° NNE 05:31:43 10° E visible
30 Jul 5.5 07:11:13 10° WNW 07:25:13 76° SSW 07:35:21 10° ESE visible
30 Jul 6.4 21:45:55 10° WNW 21:51:09 21° N 21:58:02 10° NE visible
30 Jul 6.9 23:50:46 10° NW 23:57:13 19° N 23:57:44 19° N visible
31 Jul 6.4 04:11:16 46° NNE 04:11:35 46° NNE 04:24:25 10° E visible
31 Jul 5.7 06:06:15 19° WNW 06:17:51 85° NNE 06:29:33 10° ESE visible
31 Jul 6.0 20:40:09 10° WNW 20:44:42 23° NNW 20:50:47 10° NE visible
31 Jul 6.8 22:44:50 10° NW 22:49:51 17° N 22:55:45 10° NE visible
01 Aug 7.2 00:48:45 10° NNW 00:50:35 14° NNW 00:50:35 14° NNW visible
01 Aug 7.1 03:10:54 24° ENE 03:10:54 24° ENE 03:16:12 10° E visible
01 Aug 5.9 05:05:52 52° NNW 05:10:07 68° NNE 05:23:03 10° ESE visible
01 Aug 5.6 07:01:45 10° WNW 07:15:50 63° SSW 07:26:33 10° SE visible
01 Aug 6.6 21:39:01 10° NW 21:42:58 16° N 21:47:47 10° NNE visible
01 Aug 6.9 23:43:09 10° NNW 23:48:33 17° N 23:48:33 17° N visible
02 Aug 6.3 04:05:23 48° ENE 04:05:23 48° ENE 04:15:46 10° E visible
02 Aug 5.6 06:00:21 34° WNW 06:08:20 81° SSW 06:20:41 10° ESE visible
02 Aug 6.3 20:33:11 10° NW 20:36:32 16° N 20:40:35 10° NNE visible
02 Aug 6.8 22:37:53 10° NNW 22:41:40 14° N 22:46:05 10° NNE visible
03 Aug 7.2 00:40:20 10° NNW 00:41:18 13° NNW 00:41:18 13° NNW visible
03 Aug 7.4 03:04:48 18° E 03:04:48 18° E 03:07:35 10° E visible
03 Aug 5.7 04:59:45 79° N 05:00:33 81° NNE 05:14:08 10° ESE visible
03 Aug 5.8 06:54:42 16° W 07:06:24 53° SSW 07:17:35 10° SE visible
03 Aug 6.7 21:32:51 10° NNW 21:34:51 11° N 21:37:04 10° NNE visible
03 Aug 6.8 23:35:18 10° NNW 23:39:13 16° N 23:39:13 16° N visible
04 Aug 6.6 03:59:02 39° E 03:59:02 39° E 04:06:50 10° ESE visible
04 Aug 5.7 05:53:58 49° W 05:58:45 69° SSW 06:11:36 10° SE visible
04 Aug 6.4 20:27:43 10° NNW 20:28:26 10° N 20:29:10 10° N visible
04 Aug 6.8 22:31:02 10° N 22:33:30 12° N 22:36:15 10° NNE visible
05 Aug 7.2 00:31:44 10° NNW 00:31:58 11° NNW 00:31:58 11° NNW visible
05 Aug 7.6 02:58:10 11° E 02:58:10 11° E 02:58:42 10° E visible
05 Aug 5.8 04:53:06 71° SE 04:53:06 71° SE 05:04:59 10° ESE visible
05 Aug 6.0 06:48:01 23° W 06:57:01 45° SSW 07:08:29 10° SE visible
05 Aug 6.8 23:27:08 10° NNW 23:29:54 15° N 23:29:54 15° N visible
06 Aug 6.9 03:52:06 29° ESE 03:52:06 29° ESE 03:57:39 10° ESE visible
06 Aug 5.8 05:47:01 54° SW 05:49:12 58° SSW 06:02:21 10° SE visible
06 Aug 6.4 07:43:56 10° WSW 07:55:31 30° SSW 08:05:08 10° SE visible
06 Aug 6.7 22:24:14 10° N 22:25:20 10° NNE 22:26:29 10° NNE visible
07 Aug 6.1 04:45:53 52° SE 04:45:53 52° SE 04:55:36 10° ESE visible
07 Aug 6.2 06:40:47 26° WSW 06:47:43 39° SSW 06:59:18 10° SE visible
07 Aug 6.6 23:18:40 10° NNW 23:20:39 14° N 23:20:39 14° N visible
08 Aug 7.2 03:44:39 21° ESE 03:44:39 21° ESE 03:48:13 10° ESE visible
08 Aug 6.0 05:39:32 49° SSW 05:39:44 49° SSW 05:52:57 10° SE visible
08 Aug 6.6 07:35:25 10° WSW 07:46:36 27° SSW 07:56:15 10° SE visible
